Terminal Aerodrome Forecast
Issued by NWS

Home | Current Version | Previous Version | Text Only | Print | Product List | Glossary On
Versions: 1 2 3 4 5 6 7 8 9 10 11 12 13 14 15 16 17 18 19 20 21 22 23 24 25 26 27
000
FTUS41 KBUF 172100 AAA
TAFIAG
TAF AMD
KIAG 172120Z 1721/1818 23012KT P6SM FEW045 BKN230
     FM172300 23008KT P6SM SCT200
     FM181100 00000KT P6SM BKN045
     FM181300 34008KT P6SM BKN020
     FM181700 04011KT P6SM BKN025=

USA.gov is the U.S. government's official web portal to all federal, state and local government web resources and services.